Change the Weather History Date:

Thursday, March 14, 2013

  Actual Average Record
Temperature  
Mean Temperature 58 °F -  
Max Temperature 82 °F 68 °F 82 °F (2013)
Min Temperature 35 °F 32 °F 35 °F (2013)
Degree Days  
Heating Degree Days 6    
Growing Degree Days 8 (Base 50)    
Moisture  
Dew Point 14 °F    
Average Humidity 20    
Maximum Humidity 41    
Minimum Humidity 7    
Precipitation  
Precipitation 0.00 in - - ()
Sea Level Pressure  
Sea Level Pressure 30.23 in    
Wind  
Wind Speed 5 mph (SSE)    
Max Wind Speed 12 mph    
Max Gust Speed 20 mph    
Visibility 10 miles    
Events      
Averages and records for this station are not official NWS values.
T = Trace of Precipitation, MM = Missing Value Source: NWS Daily Summary

Daily Weather History Graph

Daily Weather History Graph

Search for Another Location

Airport or City:

Trip Planner

Search our weather history database for the weather conditions in past years. The results will help you decide how hot, cold, wet, or windy it might be!

Date:

Astronomy

Mar. 14, 2013 Rise Set
Actual Time 7:25 AM MDT 7:22 PM MDT
Civil Twilight 7:01 AM MDT 7:46 PM MDT
Nautical Twilight 6:32 AM MDT 8:15 PM MDT
Astronomical Twilight 6:04 AM MDT 8:43 PM MDT
Moon 8:53 AM MDT (3/14) 10:27 PM MDT (3/14)
Length of Visible Light 12h 45m
Length of Day
11h 56m
Waxing Crescent, 9% of the Moon is Illuminated
Mar 14
Waxing Crescent
Mar 19
First Quarter
Mar 27
Full
Apr 2
Last Quarter
Apr 10
New

Hourly Weather History & Observations

Time (MDT) Temp. Windchill Dew Point Humidity Pressure Visibility Wind Dir Wind Speed Gust Speed Precip Events Conditions
12:15 AM 51.8 °F - 14.0 °F 22% 30.23 in 10.0 mi South 8.1 mph - N/A   Clear
12:35 AM 51.8 °F - 14.0 °F 22% 30.23 in 10.0 mi South 8.1 mph - N/A   Clear
12:55 AM 51.8 °F - 14.0 °F 22% 30.24 in 10.0 mi South 6.9 mph - N/A   Clear
1:15 AM 50.0 °F - 14.0 °F 24% 30.24 in 10.0 mi South 8.1 mph - N/A   Clear
1:35 AM 46.4 °F 44.3 °F 14.0 °F 27% 30.24 in 10.0 mi South 4.6 mph - N/A   Clear
1:55 AM 44.6 °F 42.2 °F 14.0 °F 29% 30.24 in 10.0 mi SE 4.6 mph - N/A   Clear
2:15 AM 42.8 °F 41.1 °F 14.0 °F 31% 30.24 in 10.0 mi SE 3.5 mph - N/A   Clear
2:35 AM 41.0 °F 37.1 °F 14.0 °F 33% 30.24 in 10.0 mi South 5.8 mph - N/A   Clear
2:55 AM 44.6 °F 41.4 °F 14.0 °F 29% 30.23 in 10.0 mi SSW 5.8 mph - N/A   Clear
3:15 AM 39.2 °F - 14.0 °F 36% 30.23 in 10.0 mi Calm Calm - N/A   Clear
3:35 AM 37.4 °F 34.9 °F 14.0 °F 38% 30.23 in 10.0 mi ESE 3.5 mph - N/A   Clear
3:55 AM 37.4 °F 33.8 °F 14.0 °F 38% 30.23 in 10.0 mi SE 4.6 mph - N/A   Clear
4:15 AM 37.4 °F 34.9 °F 14.0 °F 38% 30.23 in 10.0 mi SE 3.5 mph - N/A   Clear
4:35 AM 37.4 °F - 14.0 °F 38% 30.23 in 10.0 mi Calm Calm - N/A   Clear
4:55 AM 37.4 °F - 14.0 °F 38% 30.23 in 10.0 mi Calm Calm - N/A   Clear
5:15 AM 37.4 °F - 14.0 °F 38% 30.23 in 10.0 mi Calm Calm - N/A   Clear
5:35 AM 39.2 °F - 14.0 °F 36% 30.23 in 10.0 mi Calm Calm - N/A   Clear
5:55 AM 39.2 °F - 14.0 °F 36% 30.24 in 10.0 mi Calm Calm - N/A   Clear
6:15 AM 37.4 °F - 14.0 °F 38% 30.24 in 10.0 mi Calm Calm - N/A   Clear
6:35 AM 37.4 °F - 14.0 °F 38% 30.25 in 10.0 mi Calm Calm - N/A   Clear
6:55 AM 37.4 °F 34.9 °F 14.0 °F 38% 30.25 in 10.0 mi South 3.5 mph - N/A   Clear
7:15 AM 37.4 °F 33.8 °F 14.0 °F 38% 30.26 in 10.0 mi SSE 4.6 mph - N/A   Clear
7:35 AM 35.6 °F - 14.0 °F 41% 30.26 in 10.0 mi Calm Calm - N/A   Clear
7:55 AM 41.0 °F - 14.0 °F 33% 30.27 in 10.0 mi Calm Calm - N/A   Clear
8:15 AM 42.8 °F - 15.8 °F 34% 30.28 in 10.0 mi Calm Calm - N/A   Clear
8:35 AM 44.6 °F - 15.8 °F 31% 30.28 in 10.0 mi Calm Calm - N/A   Clear
8:55 AM 46.4 °F - 17.6 °F 32% 30.29 in 10.0 mi Calm Calm - N/A   Clear
9:15 AM 51.8 °F - 19.4 °F 28% 30.30 in 10.0 mi Calm Calm - N/A   Clear
9:35 AM 55.4 °F - 19.4 °F 25% 30.31 in 10.0 mi Calm Calm - N/A   Clear
9:55 AM 59.0 °F - 21.2 °F 23% 30.31 in 10.0 mi ESE 9.2 mph - N/A   Clear
10:15 AM 60.8 °F - 19.4 °F 20% 30.31 in 10.0 mi SE 10.4 mph - N/A   Clear
10:35 AM 68.0 °F - 19.4 °F 16% 30.31 in 10.0 mi SSE 6.9 mph - N/A   Clear
10:55 AM 68.0 °F - 19.4 °F 16% 30.31 in 10.0 mi SSE 6.9 mph - N/A   Clear
11:15 AM 71.6 °F - 19.4 °F 14% 30.31 in 10.0 mi SE 6.9 mph - N/A   Clear
11:35 AM 73.4 °F - 19.4 °F 13% 30.30 in 10.0 mi SE 10.4 mph - N/A   Clear
11:55 AM 75.2 °F - 19.4 °F 12% 30.29 in 10.0 mi SE 9.2 mph - N/A   Clear
12:15 PM 77.0 °F - 17.6 °F 11% 30.29 in 10.0 mi SE 10.4 mph - N/A   Clear
12:35 PM 77.0 °F - 17.6 °F 11% 30.28 in 10.0 mi SE 11.5 mph - N/A   Clear
12:55 PM 78.8 °F - 17.6 °F 10% 30.27 in 10.0 mi SE 11.5 mph 19.6 mph N/A   Clear
1:15 PM 78.8 °F - 17.6 °F 10% 30.27 in 10.0 mi SE 6.9 mph 17.3 mph N/A   Clear
1:35 PM 80.6 °F - 14.0 °F 8% 30.25 in 10.0 mi SE 6.9 mph 16.1 mph N/A   Clear
1:55 PM 80.6 °F - 14.0 °F 8% 30.24 in 10.0 mi SSE 4.6 mph 16.1 mph N/A   Clear
2:15 PM 80.6 °F - 12.2 °F 8% 30.23 in 10.0 mi South 6.9 mph - N/A   Clear
2:35 PM 78.8 °F - 12.2 °F 8% 30.21 in 10.0 mi ESE 9.2 mph - N/A   Clear
2:55 PM 80.6 °F - 12.2 °F 8% 30.20 in 10.0 mi SE 9.2 mph - N/A   Clear
3:15 PM 80.6 °F - 12.2 °F 8% 30.20 in 10.0 mi East 9.2 mph - N/A   Clear
3:35 PM 80.6 °F - 12.2 °F 8% 30.19 in 10.0 mi South 10.4 mph - N/A   Clear
3:55 PM 80.6 °F - 12.2 °F 8% 30.19 in 10.0 mi Calm Calm - N/A   Clear
4:15 PM 80.6 °F - 12.2 °F 8% 30.19 in 10.0 mi North - - N/A   Clear
4:35 PM 80.6 °F - 10.4 °F 7% 30.19 in 10.0 mi SSE 6.9 mph - N/A   Clear
4:55 PM 82.4 °F - 10.4 °F 7% 30.18 in 10.0 mi SE 10.4 mph - N/A   Clear
5:15 PM 80.6 °F - 10.4 °F 7% 30.17 in 10.0 mi SSE 5.8 mph - N/A   Clear
5:35 PM 80.6 °F - 10.4 °F 7% 30.17 in 10.0 mi ESE 8.1 mph - N/A   Clear
5:55 PM 80.6 °F - 10.4 °F 7% 30.17 in 10.0 mi SE 5.8 mph - N/A   Clear
6:15 PM 80.6 °F - 10.4 °F 7% 30.17 in 10.0 mi North - - N/A   Clear
6:35 PM 78.8 °F - 10.4 °F 7% 30.17 in 10.0 mi SE 6.9 mph - N/A   Clear
6:55 PM 77.0 °F - 10.4 °F 8% 30.17 in 10.0 mi North - - N/A   Clear
7:15 PM 73.4 °F - 10.4 °F 9% 30.17 in 10.0 mi SE 5.8 mph - N/A   Clear
7:35 PM 68.0 °F - 12.2 °F 12% 30.18 in 10.0 mi SE 6.9 mph - N/A   Clear
7:55 PM 64.4 °F - 10.4 °F 12% 30.18 in 10.0 mi SE 5.8 mph - N/A   Clear
8:15 PM 62.6 °F - 12.2 °F 14% 30.18 in 10.0 mi South 5.8 mph - N/A   Clear
8:35 PM 62.6 °F - 12.2 °F 14% 30.18 in 10.0 mi South 6.9 mph - N/A   Clear
8:55 PM 60.8 °F - 12.2 °F 15% 30.18 in 10.0 mi North - - N/A   Clear
9:15 PM 59.0 °F - 12.2 °F 16% 30.18 in 10.0 mi SSE 6.9 mph - N/A   Clear
9:35 PM 59.0 °F - 12.2 °F 16% 30.19 in 10.0 mi SSE 6.9 mph - N/A   Clear
10:15 PM 55.4 °F - 12.2 °F 18% 30.19 in 10.0 mi SSE 6.9 mph - N/A   Clear
10:35 PM 53.6 °F - 10.4 °F 18% 30.19 in 10.0 mi South 6.9 mph - N/A   Clear
10:55 PM 57.2 °F - 12.2 °F 17% 30.19 in 10.0 mi SSE 8.1 mph - N/A   Clear
11:15 PM 59.0 °F - 10.4 °F 15% 30.20 in 10.0 mi SSE 8.1 mph - N/A   Clear
11:35 PM 55.4 °F - 10.4 °F 17% 30.20 in 10.0 mi SSE 6.9 mph - N/A   Clear